This demonstration page uses our WeatherBlox Daily Observations layout. Learn more.

Left ArrowRight Arrow

Hourly Observations for March 3, 2022

Temp ( °F °C ) Dew Point ( °F °C ) Humidity (%) Winds ( mph kmh ) Pressure ( in mb ) Visibility ( mi km ) Precip ( " mm )
12:53 am 00:53 Cloudy 28 -2.2 26 -3.3 92 92 ENE 16 26 30.14 1021 9 14 0.00 0.00
1:53 am 01:53 Cloudy 27 -2.8 25 -3.9 92 92 E 20 31 30.14 1021 9 14 0.00 0.00
2:02 am 02:02 Cloudy 27 -2.8 25 -3.9 92 92 E 20 31 30.18 1022 10 16 0.00 0.00
2:14 am 02:14 Cloudy 27 -2.8 25 -3.9 92 92 E 21 33 30.18 1022 10 16 0.00 0.00
2:53 am 02:53 Cloudy 27 -2.8 24 -4.4 89 89 E 21 33 30.11 1020 10 16 0.00 0.00
3:53 am 03:53 Cloudy 26 -3.3 24 -4.4 92 92 E 17 28 30.12 1020 10 16 0.00 0.00
4:21 am 04:21 Cloudy 26 -3.3 24 -4.4 92 92 E 18 30 30.17 1022 10 16 0.00 0.00
4:53 am 04:53 Cloudy 26 -3.3 24 -4.4 92 92 E 16 26 30.12 1020 10 16 0.00 0.00
5:53 am 05:53 Cloudy with Mist and Fog 26 -3.3 24 -4.4 92 92 ENE 14 22 30.11 1020 6 10 0.00 0.00
6:53 am 06:53 Cloudy with Mist and Fog 26 -3.3 24 -4.4 92 92 ENE 15 24 30.10 1019 4 6 0.00 0.00
7:53 am 07:53 Cloudy with Mist and Fog 25 -3.9 24 -4.4 96 96 ENE 17 28 30.09 1019 5 8 0.00 0.00
8:53 am 08:53 Cloudy with Light Snow 26 -3.3 25 -3.9 96 96 ENE 15 24 30.08 1019 4 6 0.01 0.25
9:04 am 09:04 Cloudy with Light Freezing Rain 27 -3 25 -4 93 93 E 16 26 30.11 1020 4 6 0.00 0.00
9:21 am 09:21 Cloudy with Mist and Fog 26 -3.3 25 -3.9 96 96 E 16 26 30.12 1020 5 8 0.00 0.00
9:53 am 09:53 Cloudy with Mist and Fog 27 -2.8 26 -3.3 96 96 E 16 26 30.06 1018 5 8 0.00 0.00
10:53 am 10:53 Cloudy with Mist and Fog 28 -2.2 27 -2.8 96 96 ENE 12 19 30.05 1018 5 8 0.00 0.00
11:53 am 11:53 Cloudy with Mist and Fog 30 -1.1 29 -1.7 96 96 NE 7 11 30.03 1017 5 8 0.00 0.00
12:44 pm 12:44 Cloudy with Mist and Fog 30 -1.1 29 -1.7 96 96 ENE 10 17 30.04 1017 3 5 0.00 0.00
12:53 pm 12:53 Cloudy with Mist and Fog 30 -1.1 29 -1.7 96 96 NE 10 17 30.02 1017 4 6 0.00 0.00
1:53 pm 13:53 Cloudy with Mist and Fog 30 -1.1 29 -1.7 96 96 NE 8 13 30.00 1016 4 6 0.00 0.00
2:53 pm 14:53 Cloudy with Mist and Fog 29 -1.7 29 -1.7 100 100 NE 8 13 30.00 1016 3 5 0.00 0.00
3:27 pm 15:27 Cloudy with Mist and Fog 29 -1.7 28 -2.2 96 96 NE 9 15 30.04 1017 3 4 0.00 0.00
3:53 pm 15:53 Cloudy with Mist and Fog 29 -1.7 28 -2.2 96 96 ENE 9 15 30.01 1016 2 3 0.00 0.00
4:03 pm 16:03 Cloudy with Mist and Fog 29 -1.7 28 -2.2 96 96 ENE 10 17 30.03 1017 2 2 0.00 0.00
4:18 pm 16:18 Cloudy with Mist and Fog 29 -1.7 28 -2.2 96 96 ENE 10 17 30.03 1017 1 2 0.00 0.00
4:53 pm 16:53 Cloudy with Mist and Fog 29 -1.7 28 -2.2 96 96 NE 10 17 30.00 1016 1 2 0.00 0.00
5:07 pm 17:07 Cloudy with Mist and Fog 29 -1.7 28 -2.2 96 96 ENE 8 13 30.03 1017 1 1 0.00 0.00
5:35 pm 17:35 Cloudy with Mist and Fog 29 -1.7 28 -2.2 96 96 ENE 8 13 30.03 1017 1 2 0.00 0.00
5:44 pm 17:44 Cloudy with Mist and Fog 28 -2 28 -2 100 100 NE 8 13 30.03 1017 1 1 0.00 0.00
5:53 pm 17:53 Cloudy with Mist and Fog 29 -1.7 28 -2.2 96 96 ENE 7 11 30.00 1016 1 1 0.00 0.00
6:13 pm 18:13 Mostly Cloudy with Mist and Fog 29 -1.7 28 -2.2 96 96 NE 7 11 30.03 1017 1 2 0.00 0.00
6:29 pm 18:29 Mostly Cloudy with Mist and Fog 28 -2.2 28 -2.2 100 100 NE 8 13 30.03 1017 1 1 0.00 0.00
6:53 pm 18:53 Mostly Cloudy with Mist and Fog 28 -2.2 28 -2.2 100 100 ENE 8 13 30.00 1016 1 1 0.00 0.00
7:53 pm 19:53 Mostly Cloudy with Mist and Fog 28 -2.2 28 -2.2 100 100 NE 8 13 30.00 1016 1 1 0.00 0.00
8:53 pm 20:53 Mostly Cloudy with Freezing Fog 28 -2.2 28 -2.2 100 100 NNE 5 7 30.00 1016 1 1 0.00 0.00
9:53 pm 21:53 Mostly Cloudy with Light Snow 28 -2.2 27 -2.8 96 96 N 5 7 30.00 1016 1 1 0.00 0.00
10:03 pm 22:03 Cloudy with Light Snow 28 -2.2 27 -2.8 96 96 NNE 3 6 30.03 1017 1 2 0.01 0.25
10:13 pm 22:13 Cloudy with Light Snow 28 -2.2 27 -2.8 96 96 NNE 5 7 30.02 1017 2 3 0.01 0.25
10:26 pm 22:26 Cloudy with Light Snow 28 -2.2 27 -2.8 96 96 NE 5 7 30.01 1016 3 5 0.01 0.25
10:40 pm 22:40 Cloudy with Light Snow 28 -2.2 27 -2.8 96 96 Calm 30.02 1017 3 4 0.01 0.25
10:53 pm 22:53 Cloudy with Light Snow 28 -2.2 27 -2.8 96 96 Calm 30.00 1016 3 5 0.01 0.25
11:17 pm 23:17 Cloudy with Light Snow 28 -2.2 27 -2.8 96 96 Calm 30.03 1017 2 3 0.01 0.25
11:25 pm 23:25 Cloudy with Light Snow 28 -2.2 27 -2.8 96 96 NNW 3 6 30.02 1017 1 2 0.01 0.25
11:45 pm 23:45 Mostly Cloudy with Light Snow 28 -2.2 27 -2.8 96 96 NNW 3 6 30.02 1017 1 1 0.02 0.51
11:53 pm 23:53 Cloudy with Light Snow 28 -2.2 27 -2.8 96 96 WNW 3 6 29.99 1016 1 2 0.03 0.76
11:59 pm 23:59 Cloudy with Light Snow 28 -2.2 27 -2.8 96 96 NW 3 6 30.03 1017 2 3 0.00 0.00

Powered by AerisWeather